#datetime,building,power
2023-08-02T00:01:00,och,13.20
2023-08-02T00:03:00,och,11.40
2023-08-02T00:04:00,och,7.20
2023-08-02T00:05:00,och,6.00
2023-08-02T00:07:00,och,12.60
2023-08-02T00:09:00,och,12.00
2023-08-02T00:10:00,och,7.20
2023-08-02T00:12:00,och,16.80
2023-08-02T00:14:00,och,7.20
2023-08-02T00:16:00,och,12.00
2023-08-02T00:18:00,och,12.60
2023-08-02T00:20:00,och,13.20
2023-08-02T00:21:00,och,5.40
2023-08-02T00:23:00,och,13.20
2023-08-02T00:24:00,och,6.00
2023-08-02T00:25:00,och,5.40
2023-08-02T00:27:00,och,13.20
2023-08-02T00:28:00,och,5.40
2023-08-02T00:30:00,och,13.20
2023-08-02T00:32:00,och,11.40
2023-08-02T00:33:00,och,6.00
2023-08-02T00:34:00,och,7.20
2023-08-02T00:36:00,och,11.40
2023-08-02T00:38:00,och,11.40
2023-08-02T00:40:00,och,13.20
2023-08-02T00:41:00,och,5.40
2023-08-02T00:43:00,och,13.20
2023-08-02T00:44:00,och,6.00
2023-08-02T00:46:00,och,11.40
2023-08-02T00:48:00,och,12.60
2023-08-02T00:49:00,och,6.00
2023-08-02T00:51:00,och,11.40
2023-08-02T00:52:00,och,7.20
2023-08-02T00:53:00,och,6.00
2023-08-02T00:55:00,och,12.60
2023-08-02T00:57:00,och,12.00
2023-08-02T00:58:00,och,5.40
2023-08-02T00:59:00,och,7.20
2023-08-02T01:01:00,och,11.40
2023-08-02T01:03:00,och,12.00
2023-08-02T01:05:00,och,12.60
2023-08-02T01:06:00,och,6.00
2023-08-02T01:08:00,och,11.40
2023-08-02T01:10:00,och,13.20
2023-08-02T01:12:00,och,11.40
2023-08-02T01:13:00,och,5.40
2023-08-02T01:14:00,och,6.00
2023-08-02T01:16:00,och,13.20
2023-08-02T01:18:00,och,25.80
2023-08-02T01:19:00,och,15.60
2023-08-02T01:21:00,och,13.20
2023-08-02T01:23:00,och,12.60
2023-08-02T01:25:00,och,13.20
2023-08-02T01:26:00,och,7.20
2023-08-02T01:28:00,och,13.20
2023-08-02T01:30:00,och,12.60
2023-08-02T01:31:00,och,7.20
2023-08-02T01:33:00,och,13.20
2023-08-02T01:35:00,och,12.60
2023-08-02T01:37:00,och,13.20
2023-08-02T01:39:00,och,13.20
2023-08-02T01:41:00,och,12.60
2023-08-02T01:42:00,och,7.20
2023-08-02T01:44:00,och,13.20
2023-08-02T01:46:00,och,11.40
2023-08-02T01:48:00,och,13.20
2023-08-02T01:50:00,och,12.60
2023-08-02T01:51:00,och,7.20
2023-08-02T01:53:00,och,13.20
2023-08-02T01:55:00,och,12.60
2023-08-02T01:56:00,och,6.00
2023-08-02T01:58:00,och,13.20
2023-08-02T02:00:00,och,12.60
2023-08-02T02:02:00,och,13.20
2023-08-02T02:03:00,och,5.40
2023-08-02T02:05:00,och,13.20
2023-08-02T02:07:00,och,11.40
2023-08-02T02:09:00,och,13.20
2023-08-02T02:11:00,och,12.60
2023-08-02T02:13:00,och,12.00
2023-08-02T02:15:00,och,11.40
2023-08-02T02:16:00,och,5.40
2023-08-02T02:17:00,och,13.20
2023-08-02T02:19:00,och,6.00
2023-08-02T02:21:00,och,12.60
2023-08-02T02:22:00,och,6.00
2023-08-02T02:23:00,och,5.40
2023-08-02T02:25:00,och,13.20
2023-08-02T02:26:00,och,6.00
2023-08-02T02:27:00,och,5.40
2023-08-02T02:29:00,och,13.20
2023-08-02T02:31:00,och,11.40
2023-08-02T02:33:00,och,13.20
2023-08-02T02:34:00,och,5.40
2023-08-02T02:35:00,och,13.20
2023-08-02T02:37:00,och,5.40
2023-08-02T02:38:00,och,6.00
2023-08-02T02:40:00,och,14.40
2023-08-02T02:41:00,och,6.00
2023-08-02T02:42:00,och,7.20
2023-08-02T02:43:00,och,5.40
2023-08-02T02:45:00,och,13.20
2023-08-02T02:46:00,och,5.40
2023-08-02T02:48:00,och,13.20
2023-08-02T02:49:00,och,6.00
2023-08-02T02:50:00,och,7.20
2023-08-02T02:52:00,och,11.40
2023-08-02T02:53:00,och,7.20
2023-08-02T02:55:00,och,11.40
2023-08-02T02:57:00,och,13.20
2023-08-02T02:59:00,och,12.60
2023-08-02T03:01:00,och,11.40
2023-08-02T03:03:00,och,12.00
2023-08-02T03:04:00,och,5.40
2023-08-02T03:06:00,och,13.20
2023-08-02T03:08:00,och,11.40
2023-08-02T03:09:00,och,6.00
2023-08-02T03:11:00,och,12.60
2023-08-02T03:13:00,och,11.40
2023-08-02T03:14:00,och,6.00
2023-08-02T03:15:00,och,7.20
2023-08-02T03:17:00,och,11.40
2023-08-02T03:19:00,och,13.20
2023-08-02T03:21:00,och,11.40
2023-08-02T03:22:00,och,6.00
2023-08-02T03:23:00,och,7.20
2023-08-02T03:25:00,och,11.40
2023-08-02T03:26:00,och,5.40
2023-08-02T03:28:00,och,13.20
2023-08-02T03:29:00,och,6.00
2023-08-02T03:31:00,och,12.60
2023-08-02T03:32:00,och,6.00
2023-08-02T03:33:00,och,7.20
2023-08-02T03:35:00,och,11.40
2023-08-02T03:36:00,och,6.00
2023-08-02T03:38:00,och,12.60
2023-08-02T03:39:00,och,6.00
2023-08-02T03:41:00,och,11.40
2023-08-02T03:43:00,och,13.20
2023-08-02T03:44:00,och,5.40
2023-08-02T03:45:00,och,7.20
2023-08-02T03:47:00,och,11.40
2023-08-02T03:48:00,och,7.20
2023-08-02T03:50:00,och,12.00
2023-08-02T03:52:00,och,12.60
2023-08-02T03:53:00,och,6.00
2023-08-02T03:55:00,och,12.60
2023-08-02T03:57:00,och,13.20
2023-08-02T03:58:00,och,6.00
2023-08-02T03:59:00,och,5.40
2023-08-02T04:01:00,och,13.20
2023-08-02T04:03:00,och,12.60
2023-08-02T04:04:00,och,7.20
2023-08-02T04:05:00,och,7.20
2023-08-02T04:07:00,och,16.20
2023-08-02T04:09:00,och,15.60
2023-08-02T04:11:00,och,16.20
2023-08-02T04:12:00,och,7.20
2023-08-02T04:13:00,och,8.40
2023-08-02T04:15:00,och,15.60
2023-08-02T04:17:00,och,16.20
2023-08-02T04:19:00,och,14.40
2023-08-02T04:21:00,och,15.60
2023-08-02T04:22:00,och,9.00
2023-08-02T04:23:00,och,7.20
2023-08-02T04:25:00,och,15.60
2023-08-02T04:27:00,och,15.60
2023-08-02T04:28:00,och,9.00
2023-08-02T04:30:00,och,14.40
2023-08-02T04:32:00,och,18.60
2023-08-02T04:34:00,och,15.60
2023-08-02T04:35:00,och,13.20
2023-08-02T04:37:00,och,18.60
2023-08-02T04:39:00,och,20.40
2023-08-02T04:41:00,och,15.60
2023-08-02T04:43:00,och,20.40
2023-08-02T04:45:00,och,19.80
2023-08-02T04:47:00,och,17.40
2023-08-02T04:49:00,och,20.40
2023-08-02T04:50:00,och,8.40
2023-08-02T04:51:00,och,9.00
2023-08-02T04:53:00,och,16.80
2023-08-02T04:54:00,och,9.00
2023-08-02T04:55:00,och,7.20
2023-08-02T04:57:00,och,17.40
2023-08-02T04:58:00,och,8.40
2023-08-02T05:00:00,och,15.60
2023-08-02T05:02:00,och,17.40
2023-08-02T05:04:00,och,16.20
2023-08-02T05:06:00,och,16.80
2023-08-02T05:07:00,och,9.00
2023-08-02T05:09:00,och,17.40
2023-08-02T05:10:00,och,8.40
2023-08-02T05:12:00,och,17.40
2023-08-02T05:13:00,och,8.40
2023-08-02T05:14:00,och,9.00
2023-08-02T05:16:00,och,15.60
2023-08-02T05:17:00,och,8.40
2023-08-02T05:18:00,och,9.00
2023-08-02T05:19:00,och,8.40
2023-08-02T05:21:00,och,16.20
2023-08-02T05:22:00,och,8.40
2023-08-02T05:24:00,och,15.60
2023-08-02T05:26:00,och,17.40
2023-08-02T05:28:00,och,16.20
2023-08-02T05:30:00,och,16.80
2023-08-02T05:32:00,och,16.20
2023-08-02T05:34:00,och,17.40
2023-08-02T05:35:00,och,8.40
2023-08-02T05:37:00,och,18.60
2023-08-02T05:39:00,och,17.40
2023-08-02T05:40:00,och,8.40
2023-08-02T05:41:00,och,10.20
2023-08-02T05:42:00,och,9.00
2023-08-02T05:44:00,och,18.60
2023-08-02T05:46:00,och,17.40
2023-08-02T05:48:00,och,18.60
2023-08-02T05:49:00,och,8.40
2023-08-02T05:51:00,och,16.20
2023-08-02T05:52:00,och,8.40
2023-08-02T05:54:00,och,15.60
2023-08-02T05:55:00,och,9.00
2023-08-02T05:57:00,och,15.60
2023-08-02T05:59:00,och,16.20
2023-08-02T06:01:00,och,16.80
2023-08-02T06:03:00,och,16.20
2023-08-02T06:04:00,och,7.20
2023-08-02T06:06:00,och,17.40
2023-08-02T06:08:00,och,15.60
2023-08-02T06:09:00,och,8.40
2023-08-02T06:11:00,och,16.20
2023-08-02T06:12:00,och,8.40
2023-08-02T06:14:00,och,16.20
2023-08-02T06:15:00,och,8.40
2023-08-02T06:17:00,och,17.40
2023-08-02T06:19:00,och,15.60
2023-08-02T06:21:00,och,16.20
2023-08-02T06:23:00,och,15.60
2023-08-02T06:24:00,och,7.20
2023-08-02T06:25:00,och,8.40
2023-08-02T06:27:00,och,14.40
2023-08-02T06:28:00,och,9.00
2023-08-02T06:30:00,och,14.40
2023-08-02T06:32:00,och,15.60
2023-08-02T06:33:00,och,7.20
2023-08-02T06:34:00,och,9.00
2023-08-02T06:36:00,och,15.60
2023-08-02T06:37:00,och,7.20
2023-08-02T06:39:00,och,15.60
2023-08-02T06:41:00,och,14.40
2023-08-02T06:42:00,och,9.00
2023-08-02T06:44:00,och,14.40
2023-08-02T06:45:00,och,8.40
2023-08-02T06:47:00,och,16.20
2023-08-02T06:49:00,och,14.40
2023-08-02T06:51:00,och,15.60
2023-08-02T06:52:00,och,11.40
2023-08-02T06:54:00,och,16.20
2023-08-02T06:55:00,och,7.20
2023-08-02T06:57:00,och,15.60
2023-08-02T06:59:00,och,15.60
2023-08-02T07:00:00,och,7.20
2023-08-02T07:02:00,och,17.40
2023-08-02T07:03:00,och,7.20
2023-08-02T07:04:00,och,9.00
2023-08-02T07:06:00,och,18.60
2023-08-02T07:08:00,och,21.60
2023-08-02T07:09:00,och,11.40
2023-08-02T07:11:00,och,24.60
2023-08-02T07:13:00,och,21.60
2023-08-02T07:14:00,och,14.40
2023-08-02T07:16:00,och,21.60
2023-08-02T07:18:00,och,28.80
2023-08-02T07:20:00,och,24.60
2023-08-02T07:22:00,och,22.80
2023-08-02T07:24:00,och,24.60
2023-08-02T07:25:00,och,19.80
2023-08-02T07:27:00,och,40.80
2023-08-02T07:29:00,och,25.80
2023-08-02T07:30:00,och,10.20
2023-08-02T07:32:00,och,22.80
2023-08-02T07:34:00,och,22.80
2023-08-02T07:35:00,och,12.00
2023-08-02T07:37:00,och,22.80
2023-08-02T07:38:00,och,11.40
2023-08-02T07:40:00,och,21.60
2023-08-02T07:42:00,och,24.60
2023-08-02T07:43:00,och,10.20
2023-08-02T07:44:00,och,12.60
2023-08-02T07:46:00,och,21.60
2023-08-02T07:48:00,och,23.40
2023-08-02T07:49:00,och,10.20
2023-08-02T07:50:00,och,11.40
2023-08-02T07:52:00,och,22.80
2023-08-02T07:53:00,och,13.20
2023-08-02T07:55:00,och,22.80
2023-08-02T07:57:00,och,28.80
2023-08-02T07:59:00,och,30.60
2023-08-02T08:00:00,och,15.60
2023-08-02T08:02:00,och,31.80
2023-08-02T08:03:00,och,14.40
2023-08-02T08:04:00,och,15.60
2023-08-02T08:06:00,och,30.60
2023-08-02T08:08:00,och,31.20
2023-08-02T08:09:00,och,17.40
2023-08-02T08:10:00,och,14.40
2023-08-02T08:11:00,och,16.20
2023-08-02T08:13:00,och,31.20
2023-08-02T08:15:00,och,31.80
2023-08-02T08:16:00,och,16.20
2023-08-02T08:17:00,och,15.60
2023-08-02T08:19:00,och,31.80
2023-08-02T08:20:00,och,15.60
2023-08-02T08:21:00,och,16.20
2023-08-02T08:23:00,och,31.20
2023-08-02T08:24:00,och,16.20
2023-08-02T08:26:00,och,31.80
2023-08-02T08:28:00,och,31.20
2023-08-02T08:29:00,och,16.20
2023-08-02T08:31:00,och,31.80
2023-08-02T08:33:00,och,31.20
2023-08-02T08:35:00,och,31.80
2023-08-02T08:36:00,och,17.40
2023-08-02T08:38:00,och,31.80
2023-08-02T08:39:00,och,17.40
2023-08-02T08:41:00,och,34.20
2023-08-02T08:42:00,och,18.60
2023-08-02T08:44:00,och,39.00
2023-08-02T08:45:00,och,17.40
2023-08-02T08:47:00,och,34.80
2023-08-02T08:48:00,och,15.60
2023-08-02T08:49:00,och,17.40
2023-08-02T08:51:00,och,36.00
2023-08-02T08:52:00,och,17.40
2023-08-02T08:54:00,och,34.20
2023-08-02T08:55:00,och,17.40
2023-08-02T08:56:00,och,17.40
2023-08-02T08:58:00,och,34.20
2023-08-02T09:00:00,och,34.80
2023-08-02T09:02:00,och,33.00
2023-08-02T09:03:00,och,17.40
2023-08-02T09:05:00,och,34.80
2023-08-02T09:06:00,och,15.60
2023-08-02T09:08:00,och,33.00
2023-08-02T09:10:00,och,33.00
2023-08-02T09:12:00,och,36.00
2023-08-02T09:14:00,och,34.80
2023-08-02T09:15:00,och,21.60
2023-08-02T09:17:00,och,49.20
2023-08-02T09:18:00,och,25.80
2023-08-02T09:20:00,och,48.60
2023-08-02T09:22:00,och,34.80
2023-08-02T09:24:00,och,34.80
2023-08-02T09:26:00,och,38.40
2023-08-02T09:27:00,och,19.20
2023-08-02T09:29:00,och,36.00
2023-08-02T09:31:00,och,34.20
2023-08-02T09:32:00,och,18.60
2023-08-02T09:34:00,och,36.00
2023-08-02T09:35:00,och,17.40
2023-08-02T09:37:00,och,36.00
2023-08-02T09:39:00,och,36.00
2023-08-02T09:40:00,och,18.60
2023-08-02T09:41:00,och,17.40
2023-08-02T09:42:00,och,18.60
2023-08-02T09:44:00,och,40.80
2023-08-02T09:46:00,och,36.00
2023-08-02T09:47:00,och,18.60
2023-08-02T09:48:00,och,17.40
2023-08-02T09:49:00,och,16.80
2023-08-02T09:51:00,och,39.00
2023-08-02T09:53:00,och,36.00
2023-08-02T09:54:00,och,17.40
2023-08-02T09:56:00,och,36.00
2023-08-02T09:57:00,och,17.40
2023-08-02T09:59:00,och,36.00
2023-08-02T10:01:00,och,40.20
2023-08-02T10:02:00,och,18.60
2023-08-02T10:04:00,och,37.80
2023-08-02T10:05:00,och,19.80
2023-08-02T10:07:00,och,37.80
2023-08-02T10:09:00,och,37.20
2023-08-02T10:11:00,och,39.00
2023-08-02T10:12:00,och,18.60
2023-08-02T10:14:00,och,36.00
2023-08-02T10:16:00,och,36.00
2023-08-02T10:18:00,och,37.20
2023-08-02T10:19:00,och,17.40
2023-08-02T10:20:00,och,18.60
2023-08-02T10:22:00,och,36.00
2023-08-02T10:23:00,och,19.20
2023-08-02T10:25:00,och,36.00
2023-08-02T10:26:00,och,18.60
2023-08-02T10:28:00,och,34.20
2023-08-02T10:29:00,och,19.20
2023-08-02T10:31:00,och,36.00
2023-08-02T10:32:00,och,16.80
2023-08-02T10:34:00,och,42.00
2023-08-02T10:35:00,och,27.60
2023-08-02T10:37:00,och,50.40
2023-08-02T10:39:00,och,34.20
2023-08-02T10:41:00,och,36.00
2023-08-02T10:43:00,och,36.00
2023-08-02T10:45:00,och,30.60
2023-08-02T10:47:00,och,33.00
2023-08-02T10:48:00,och,14.40
2023-08-02T10:50:00,och,31.80
2023-08-02T10:51:00,och,16.80
2023-08-02T10:53:00,och,36.00
2023-08-02T10:55:00,och,34.80
2023-08-02T10:56:00,och,17.40
2023-08-02T10:58:00,och,37.20
2023-08-02T11:00:00,och,36.00
2023-08-02T11:01:00,och,18.60
2023-08-02T11:02:00,och,17.40
2023-08-02T11:04:00,och,37.80
2023-08-02T11:06:00,och,36.00
2023-08-02T11:08:00,och,36.00
2023-08-02T11:10:00,och,37.20
2023-08-02T11:12:00,och,36.00
2023-08-02T11:14:00,och,36.00
2023-08-02T11:15:00,och,18.60
2023-08-02T11:17:00,och,36.00
2023-08-02T11:18:00,och,18.60
2023-08-02T11:20:00,och,36.00
2023-08-02T11:22:00,och,37.80
2023-08-02T11:23:00,och,18.60
2023-08-02T11:25:00,och,43.20
2023-08-02T11:27:00,och,39.00
2023-08-02T11:29:00,och,39.00
2023-08-02T11:31:00,och,38.40
2023-08-02T11:33:00,och,37.80
2023-08-02T11:35:00,och,39.00
2023-08-02T11:37:00,och,38.40
2023-08-02T11:38:00,och,20.40
2023-08-02T11:39:00,och,18.60
2023-08-02T11:41:00,och,37.80
2023-08-02T11:43:00,och,37.20
2023-08-02T11:45:00,och,37.20
2023-08-02T11:46:00,och,19.20
2023-08-02T11:48:00,och,36.00
2023-08-02T11:50:00,och,36.00
2023-08-02T11:51:00,och,22.80
2023-08-02T11:53:00,och,54.60
2023-08-02T11:56:00,och,39.00
2023-08-02T11:57:00,och,18.60
2023-08-02T11:59:00,och,37.80
2023-08-02T12:01:00,och,36.00
2023-08-02T12:03:00,och,36.00
2023-08-02T12:04:00,och,18.60
2023-08-02T12:06:00,och,36.00
2023-08-02T12:08:00,och,36.00
2023-08-02T12:10:00,och,37.20
2023-08-02T12:11:00,och,18.60
2023-08-02T12:13:00,och,37.80
2023-08-02T12:14:00,och,18.60
2023-08-02T12:15:00,och,18.60
2023-08-02T12:17:00,och,54.60
2023-08-02T12:20:00,och,36.00
2023-08-02T12:22:00,och,36.00
2023-08-02T12:24:00,och,36.00
2023-08-02T12:26:00,och,55.20
2023-08-02T12:28:00,och,52.80
2023-08-02T12:29:00,och,21.60
2023-08-02T12:31:00,och,37.80
2023-08-02T12:32:00,och,18.60
2023-08-02T12:34:00,och,39.00
2023-08-02T12:35:00,och,17.40
2023-08-02T12:36:00,och,21.60
2023-08-02T12:37:00,och,19.80
2023-08-02T12:39:00,och,37.80
2023-08-02T12:41:00,och,37.20
2023-08-02T12:43:00,och,36.00
2023-08-02T12:44:00,och,18.60
2023-08-02T12:46:00,och,34.80
2023-08-02T12:48:00,och,34.20
2023-08-02T12:49:00,och,17.40
2023-08-02T12:51:00,och,36.00
2023-08-02T12:53:00,och,37.80
2023-08-02T12:54:00,och,18.60
2023-08-02T12:56:00,och,36.00
2023-08-02T12:58:00,och,36.00
2023-08-02T12:59:00,och,18.60
2023-08-02T13:00:00,och,17.40
2023-08-02T13:02:00,och,37.20
2023-08-02T13:04:00,och,36.00
2023-08-02T13:06:00,och,37.80
2023-08-02T13:08:00,och,37.20
2023-08-02T13:09:00,och,18.60
2023-08-02T13:11:00,och,36.00
2023-08-02T13:13:00,och,36.00
2023-08-02T13:15:00,och,37.80
2023-08-02T13:17:00,och,36.00
2023-08-02T13:18:00,och,18.60
2023-08-02T13:20:00,och,36.00
2023-08-02T13:22:00,och,34.20
2023-08-02T13:24:00,och,34.80
2023-08-02T13:26:00,och,39.00
2023-08-02T13:27:00,och,17.40
2023-08-02T13:29:00,och,34.20
2023-08-02T13:31:00,och,34.80
2023-08-02T13:32:00,och,17.40
2023-08-02T13:34:00,och,34.20
2023-08-02T13:35:00,och,17.40
2023-08-02T13:37:00,och,34.80
2023-08-02T13:39:00,och,36.00
2023-08-02T13:40:00,och,18.60
2023-08-02T13:41:00,och,24.60
2023-08-02T13:43:00,och,37.20
2023-08-02T13:44:00,och,18.60
2023-08-02T13:46:00,och,37.80
2023-08-02T13:48:00,och,37.20
2023-08-02T13:50:00,och,39.00
2023-08-02T13:51:00,och,18.60
2023-08-02T13:53:00,och,37.20
2023-08-02T13:55:00,och,37.80
2023-08-02T13:56:00,och,18.60
2023-08-02T13:58:00,och,37.20
2023-08-02T14:00:00,och,39.00
2023-08-02T14:02:00,och,37.80
2023-08-02T14:04:00,och,38.40
2023-08-02T14:06:00,och,37.80
2023-08-02T14:08:00,och,43.20
2023-08-02T14:10:00,och,55.80
2023-08-02T14:11:00,och,27.60
2023-08-02T14:13:00,och,44.40
2023-08-02T14:15:00,och,39.00
2023-08-02T14:17:00,och,37.80
2023-08-02T14:18:00,och,18.60
2023-08-02T14:19:00,och,18.60
2023-08-02T14:21:00,och,37.20
2023-08-02T14:22:00,och,17.40
2023-08-02T14:23:00,och,17.40
2023-08-02T14:25:00,och,37.20
2023-08-02T14:26:00,och,19.20
2023-08-02T14:28:00,och,38.40
2023-08-02T14:30:00,och,37.80
2023-08-02T14:31:00,och,18.60
2023-08-02T14:33:00,och,36.00
2023-08-02T14:34:00,och,18.60
2023-08-02T14:36:00,och,37.80
2023-08-02T14:38:00,och,37.20
2023-08-02T14:40:00,och,36.00
2023-08-02T14:41:00,och,18.60
2023-08-02T14:43:00,och,37.80
2023-08-02T14:45:00,och,37.20
2023-08-02T14:47:00,och,37.20
2023-08-02T14:48:00,och,19.20
2023-08-02T14:49:00,och,16.80
2023-08-02T14:50:00,och,19.20
2023-08-02T14:52:00,och,38.40
2023-08-02T14:54:00,och,49.20
2023-08-02T14:56:00,och,63.60
2023-08-02T14:58:00,och,63.00
2023-08-02T15:00:00,och,63.60
2023-08-02T15:02:00,och,63.00
2023-08-02T15:04:00,och,62.40
2023-08-02T15:05:00,och,31.20
2023-08-02T15:07:00,och,62.40
2023-08-02T15:09:00,och,63.00
2023-08-02T15:11:00,och,61.80
2023-08-02T15:12:00,och,31.80
2023-08-02T15:13:00,och,34.80
2023-08-02T15:15:00,och,61.80
2023-08-02T15:17:00,och,63.60
2023-08-02T15:19:00,och,61.80
2023-08-02T15:20:00,och,30.00
2023-08-02T15:22:00,och,66.60
2023-08-02T15:23:00,och,31.20
2023-08-02T15:25:00,och,53.40
2023-08-02T15:27:00,och,53.40
2023-08-02T15:29:00,och,49.20
2023-08-02T15:31:00,och,48.60
2023-08-02T15:33:00,och,49.20
2023-08-02T15:35:00,och,48.60
2023-08-02T15:37:00,och,49.20
2023-08-02T15:39:00,och,50.40
2023-08-02T15:40:00,och,25.80
2023-08-02T15:42:00,och,52.20
2023-08-02T15:44:00,och,52.80
2023-08-02T15:45:00,och,26.40
2023-08-02T15:47:00,och,51.60
2023-08-02T15:48:00,och,25.80
2023-08-02T15:50:00,och,53.40
2023-08-02T15:51:00,och,25.80
2023-08-02T15:52:00,och,25.80
2023-08-02T15:54:00,och,53.40
2023-08-02T15:56:00,och,52.20
2023-08-02T15:57:00,och,25.80
2023-08-02T15:59:00,och,51.60
2023-08-02T16:01:00,och,53.40
2023-08-02T16:02:00,och,25.80
2023-08-02T16:04:00,och,52.20
2023-08-02T16:06:00,och,51.60
2023-08-02T16:08:00,och,51.60
2023-08-02T16:10:00,och,50.40
2023-08-02T16:12:00,och,52.20
2023-08-02T16:14:00,och,50.40
2023-08-02T16:16:00,och,51.60
2023-08-02T16:17:00,och,25.80
2023-08-02T16:19:00,och,49.20
2023-08-02T16:20:00,och,22.80
2023-08-02T16:21:00,och,24.60
2023-08-02T16:22:00,och,23.40
2023-08-02T16:23:00,och,27.00
2023-08-02T16:25:00,och,59.40
2023-08-02T16:27:00,och,67.20
2023-08-02T16:29:00,och,50.40
2023-08-02T16:30:00,och,23.40
2023-08-02T16:32:00,och,47.40
2023-08-02T16:34:00,och,47.40
2023-08-02T16:35:00,och,23.40
2023-08-02T16:37:00,och,47.40
2023-08-02T16:38:00,och,24.60
2023-08-02T16:40:00,och,47.40
2023-08-02T16:42:00,och,46.20
2023-08-02T16:44:00,och,47.40
2023-08-02T16:46:00,och,47.40
2023-08-02T16:48:00,och,47.40
2023-08-02T16:49:00,och,23.40
2023-08-02T16:51:00,och,45.60
2023-08-02T16:53:00,och,48.00
2023-08-02T16:55:00,och,47.40
2023-08-02T16:57:00,och,46.20
2023-08-02T16:59:00,och,44.40
2023-08-02T17:01:00,och,46.20
2023-08-02T17:02:00,och,48.60
2023-08-02T17:04:00,och,23.40
2023-08-02T17:05:00,och,22.80
2023-08-02T17:07:00,och,45.00
2023-08-02T17:09:00,och,45.60
2023-08-02T17:10:00,och,27.60
2023-08-02T17:12:00,och,46.20
2023-08-02T17:14:00,och,46.20
2023-08-02T17:16:00,och,45.60
2023-08-02T17:17:00,och,23.40
2023-08-02T17:18:00,och,24.60
2023-08-02T17:20:00,och,45.60
2023-08-02T17:22:00,och,45.00
2023-08-02T17:23:00,och,22.80
2023-08-02T17:25:00,och,46.20
2023-08-02T17:26:00,och,22.80
2023-08-02T17:28:00,och,46.20
2023-08-02T17:30:00,och,46.20
2023-08-02T17:32:00,och,46.20
2023-08-02T17:33:00,och,22.80
2023-08-02T17:35:00,och,45.00
2023-08-02T17:36:00,och,22.80
2023-08-02T17:38:00,och,44.40
2023-08-02T17:40:00,och,43.20
2023-08-02T17:42:00,och,45.00
2023-08-02T17:44:00,och,44.40
2023-08-02T17:46:00,och,47.40
2023-08-02T17:48:00,och,49.20
2023-08-02T17:50:00,och,47.40
2023-08-02T17:52:00,och,47.40
2023-08-02T17:53:00,och,24.60
2023-08-02T17:55:00,och,49.20
2023-08-02T17:56:00,och,22.80
2023-08-02T17:57:00,och,24.60
2023-08-02T17:59:00,och,47.40
2023-08-02T18:00:00,och,24.60
2023-08-02T18:01:00,och,24.60
2023-08-02T18:02:00,och,24.60
2023-08-02T18:04:00,och,47.40
2023-08-02T18:05:00,och,24.60
2023-08-02T18:06:00,och,24.00
2023-08-02T18:08:00,och,48.00
2023-08-02T18:10:00,och,48.60
2023-08-02T18:11:00,och,23.40
2023-08-02T18:13:00,och,45.60
2023-08-02T18:14:00,och,21.60
2023-08-02T18:16:00,och,43.20
2023-08-02T18:17:00,och,21.60
2023-08-02T18:19:00,och,55.20
2023-08-02T18:20:00,och,30.00
2023-08-02T18:21:00,och,30.00
2023-08-02T18:22:00,och,23.40
2023-08-02T18:24:00,och,44.40
2023-08-02T18:25:00,och,21.60
2023-08-02T18:26:00,och,21.60
2023-08-02T18:27:00,och,21.60
2023-08-02T18:29:00,och,42.00
2023-08-02T18:30:00,och,21.60
2023-08-02T18:32:00,och,43.20
2023-08-02T18:33:00,och,21.60
2023-08-02T18:35:00,och,41.40
2023-08-02T18:36:00,och,21.60
2023-08-02T18:38:00,och,46.20
2023-08-02T18:40:00,och,42.00
2023-08-02T18:41:00,och,21.60
2023-08-02T18:43:00,och,41.40
2023-08-02T18:45:00,och,43.20
2023-08-02T18:47:00,och,42.00
2023-08-02T18:49:00,och,42.00
2023-08-02T18:50:00,och,21.60
2023-08-02T18:52:00,och,41.40
2023-08-02T18:54:00,och,36.00
2023-08-02T18:55:00,och,34.80
2023-08-02T18:58:00,och,30.00
2023-08-02T19:00:00,och,31.80
2023-08-02T19:01:00,och,15.60
2023-08-02T19:03:00,och,31.80
2023-08-02T19:04:00,och,16.20
2023-08-02T19:06:00,och,31.20
2023-08-02T19:07:00,och,17.40
2023-08-02T19:08:00,och,16.20
2023-08-02T19:10:00,och,31.20
2023-08-02T19:12:00,och,33.60
2023-08-02T19:13:00,och,15.60
2023-08-02T19:15:00,och,25.80
2023-08-02T19:17:00,och,25.80
2023-08-02T19:18:00,och,13.20
2023-08-02T19:20:00,och,25.80
2023-08-02T19:22:00,och,25.80
2023-08-02T19:24:00,och,26.40
2023-08-02T19:25:00,och,14.40
2023-08-02T19:26:00,och,12.60
2023-08-02T19:28:00,och,25.80
2023-08-02T19:30:00,och,26.40
2023-08-02T19:31:00,och,12.60
2023-08-02T19:33:00,och,27.60
2023-08-02T19:34:00,och,12.60
2023-08-02T19:35:00,och,13.20
2023-08-02T19:37:00,och,27.60
2023-08-02T19:38:00,och,12.60
2023-08-02T19:39:00,och,13.20
2023-08-02T19:41:00,och,27.00
2023-08-02T19:42:00,och,13.20
2023-08-02T19:44:00,och,25.80
2023-08-02T19:46:00,och,27.60
2023-08-02T19:47:00,och,12.60
2023-08-02T19:49:00,och,26.40
2023-08-02T19:50:00,och,12.60
2023-08-02T19:52:00,och,25.80
2023-08-02T19:53:00,och,13.20
2023-08-02T19:55:00,och,25.80
2023-08-02T19:57:00,och,25.80
2023-08-02T19:59:00,och,26.40
2023-08-02T20:01:00,och,25.80
2023-08-02T20:03:00,och,25.80
2023-08-02T20:05:00,och,25.80
2023-08-02T20:07:00,och,25.80
2023-08-02T20:08:00,och,13.20
2023-08-02T20:10:00,och,25.80
2023-08-02T20:11:00,och,13.20
2023-08-02T20:13:00,och,25.80
2023-08-02T20:14:00,och,13.20
2023-08-02T20:16:00,och,25.80
2023-08-02T20:18:00,och,25.80
2023-08-02T20:19:00,och,14.40
2023-08-02T20:21:00,och,25.80
2023-08-02T20:22:00,och,13.20
2023-08-02T20:23:00,och,14.40
2023-08-02T20:25:00,och,25.80
2023-08-02T20:26:00,och,13.20
2023-08-02T20:28:00,och,25.80
2023-08-02T20:29:00,och,14.40
2023-08-02T20:31:00,och,25.80
2023-08-02T20:33:00,och,25.80
2023-08-02T20:35:00,och,27.60
2023-08-02T20:37:00,och,25.80
2023-08-02T20:38:00,och,13.20
2023-08-02T20:40:00,och,27.00
2023-08-02T20:41:00,och,13.20
2023-08-02T20:42:00,och,12.60
2023-08-02T20:44:00,och,27.60
2023-08-02T20:46:00,och,22.80
2023-08-02T20:48:00,och,23.40
2023-08-02T20:49:00,och,8.40
2023-08-02T20:51:00,och,34.80
2023-08-02T20:53:00,och,33.00
2023-08-02T20:54:00,och,8.40
2023-08-02T20:56:00,och,16.20
2023-08-02T20:58:00,och,17.40
2023-08-02T20:59:00,och,8.40
2023-08-02T21:00:00,och,7.20
2023-08-02T21:02:00,och,15.60
2023-08-02T21:03:00,och,9.00
2023-08-02T21:05:00,och,15.60
2023-08-02T21:06:00,och,7.20
2023-08-02T21:08:00,och,16.20
2023-08-02T21:10:00,och,15.60
2023-08-02T21:12:00,och,15.60
2023-08-02T21:14:00,och,16.20
2023-08-02T21:15:00,och,8.40
2023-08-02T21:17:00,och,16.20
2023-08-02T21:18:00,och,7.20
2023-08-02T21:19:00,och,8.40
2023-08-02T21:21:00,och,15.60
2023-08-02T21:22:00,och,7.20
2023-08-02T21:24:00,och,17.40
2023-08-02T21:25:00,och,7.20
2023-08-02T21:26:00,och,9.00
2023-08-02T21:28:00,och,15.60
2023-08-02T21:29:00,och,8.40
2023-08-02T21:31:00,och,16.20
2023-08-02T21:33:00,och,15.60
2023-08-02T21:35:00,och,17.40
2023-08-02T21:37:00,och,15.60
2023-08-02T21:39:00,och,16.20
2023-08-02T21:40:00,och,8.40
2023-08-02T21:41:00,och,16.20